Temp
67 68 68 66 68 68 70 71 72 74 74 74 74 73 73 73 73 72 72 72 71 71 71 71 71 71 71 71 70 70 68 68 66 68 68 72 72 71 72 74 73 73 74
67 66 66 66 67 66 66 67 68 68 71 73 73 73 73 73 73 72 72 73 71 70 71 71 71 71 70 71 70 68 69 68 67 66 68 69 70 69 71 70 70 71 70
67 65 66 65 66 66 65 66 67 68 69 71 72 72 72 72 72 72 72 72 72 72 72 71 71 71 70 70 69 69 69 69 68 66 66 68 69 69 68 68 68 68 68
67 65 64 65 65 66 66 66 67 68 68 68 70 71 71 71 71 72 72 72 72 72 72 72 72 71 71 70 70 69 69 68 67 66 66 66 68 70 68 67 67 68 68
68 65 65 65 65 65 65 65 66 67 69 69 69 70 71 71 71 71 71 71 71 72 71 72 72 72 70 71 72 70 69 67 66 66 66 65 65 66 66 67 67 67 68
66 66 66 65 65 64 65 65 66 67 67 67 67 68 68 70 65 64 68 70 70 71 70 70 73 70 69 66 67 67 70 68 66 66 66 65 66 68 69 68 67 64 63
65 65 65 65 65 65 66 66 66 66 66 66 66 66 68 69 63 63 64 69 69 70 70 70 70 75 70 72 66 65 65 65 68 70 68 68 68 68 70 66 65 65 65
65 66 65 65 65 65 65 65 66 66 66 66 67 67 66 68 63 60 61 67 68 70 70 70 70 72 72 71 72 70 70 71 69 70 72 72 72 71 71 70 69 69 67
63 64 65 65 65 64 64 64 64 65 65 66 68 67 67 68 59 57 62 66 66 66 68 68 70 70 65 61 71 70 70 71 65 62 64 64 62 62 67 69 65 64 63
62 63 64 64 64 64 65 64 65 66 67 67 67 69 65 69 55 55 63 67 65 65 66 67 62 66 60 58 67 69 68 71 69 69 67 63 62 65 61 71 70 66 66
60 62 62 62 63 63 64 65 66 66 66 66 66 66 67 66 61 55 55 66 66 65 65 66 66 59 54 54 56 67 68 71 68 70 71 70 69 68 68 69 71 72 69
59 59 61 61 62 63 62 63 65 65 65 65 64 62 61 61 56 53 54 55 58 63 64 65 65 54 50 51 54 55 55 57 67 67 67 68 67 69 70 70 69 70 74
59 58 58 59 59 61 62 62 63 63 63 62 62 61 61 61 60 52 52 54 55 60 61 57 54 52 50 53 54 54 54 61 64 65 66 68 69 70 69 67 68 69 69
58 57 58 58 58 58 60 62 62 62 62 63 63 61 62 62 61 59 57 57 55 57 55 56 56 54 53 55 56 59 60 62 63 64 66 69 68 67 66 67 64 64 63
58 57 57 58 58 59 59 59 62 62 60 62 62 62 61 61 58 50 52 55 53 51 50 57 57 58 58 59 61 63 64 64 62 63 64 65 66 65 65 66 65 64 63
57 57 57 57 59 59 59 60 52 50 47 46 47 55 57 48 43 43 43 43 42 43 54 56 56 57 57 57 57 58 60 62 63 63 64 64 64 64 65 64 64 64 63
56 56 57 56 58 58 59 59 61 58 46 45 45 46 44 45 42 43 42 42 42 45 56 57 56 57 58 57 57 57 57 60 63 64 63 63 64 65 64 64 64 63 63
56 53 57 58 59 59 60 60 60 59 60 61 48 47 43 41 46 45 42 45 57 53 55 58 58 58 58 58 58 57 58 59 60 61 61 63 64 63 63 63 64 63 63
57 57 57 59 59 59 60 61 61 60 60 59 59 52 46 41 41 42 42 58 59 58 58 59 58 57 57 58 58 58 59 59 60 61 62 62 63 62 62 63 64 57 59
58 56 56 58 59 60 61 61 61 60 60 61 61 60 56 52 57 57 57 57 58 58 58 59 57 57 57 57 58 57 58 58 60 60 61 61 62 63 62 63 63 62 62
58 58 56 59 60 60 61 61 60 60 59 59 59 58 48 58 58 58 58 58 57 57 58 59 57 57 57 57 57 57 57 57 58 58 60 62 63 62 63 63 64 63 63
59 59 60 60 59 59 60 60 59 59 59 60 60 58 43 52 57 58 58 59 58 58 58 58 57 57 57 58 57 57 56 56 57 57 57 58 61 62 62 62 63 63 63
60 60 59 59 58 55 59 60 59 59 59 60 61 60 57 56 57 57 58 60 59 59 58 58 58 58 59 59 60 58 56 55 55 57 57 57 57 57 59 61 61 61 62
59 59 59 58 58 58 58 59 59 51 56 59 61 60 59 59 58 57 58 58 58 58 59 59 59 59 59 59 59 59 57 53 53 56 58 57 57 55 56 55 55 58 61
59 59 59 58 58 57 57 58 57 58 57 58 60 60 61 59 58 58 58 58 58 59 60 60 59 59 59 59 57 58 50 35 44 40 57 59 56 56 55 55 55 55 54
59 58 58 57 57 57 57 57 58 57 56 56 57 59 60 60 59 59 57 57 58 59 59 61 61 60 60 58 57 48 38 35 43 35 52 59 56 54 54 54 54 53 53
MSLP
1006.64 1006.57 1006.82 1007.46 1007.52 1007.13 1006.33 1005.84 1006.73 1007.83 1008.69 1009.27 1009.51 1009.93 1010.14 1010.31 1010.49 1010.78 1011.05 1011.35 1011.71 1012.12 1012.45 1012.74 1013.03 1013.48 1013.65 1014.05 1014.37 1014.50 1014.71 1015.08 1014.92 1014.71 1014.72 1014.50 1014.27 1013.98 1013.78 1013.85 1013.94 1014.03 1014.18
1005.87 1005.90 1005.62 1005.79 1006.08 1006.38 1006.02 1005.82 1006.32 1007.25 1008.43 1009.00 1009.31 1009.37 1009.06 1009.27 1009.55 1009.84 1010.20 1010.53 1011.05 1011.49 1011.83 1012.17 1012.27 1012.80 1013.19 1013.44 1013.87 1014.04 1014.13 1014.37 1014.68 1014.68 1014.70 1014.55 1014.28 1014.11 1013.94 1014.02 1014.00 1014.09 1014.34
1005.27 1005.34 1005.12 1004.43 1003.74 1003.24 1002.54 1003.06 1004.84 1006.31 1007.88 1008.02 1008.33 1008.55 1008.49 1008.44 1008.88 1009.14 1009.39 1009.69 1010.08 1010.43 1011.03 1011.43 1011.59 1012.21 1012.59 1012.99 1013.32 1013.48 1013.71 1013.78 1013.97 1014.31 1014.38 1014.43 1014.27 1014.30 1014.11 1014.13 1014.18 1014.26 1014.50
1005.11 1005.32 1005.32 1005.07 1004.21 1003.35 1003.01 1003.33 1003.66 1005.11 1006.37 1007.66 1007.49 1007.58 1007.74 1007.98 1008.04 1008.31 1008.55 1008.87 1009.28 1009.75 1010.29 1010.65 1011.00 1011.51 1011.78 1012.14 1012.50 1012.77 1013.29 1013.50 1013.57 1013.46 1013.71 1014.01 1013.99 1013.96 1014.02 1013.97 1014.19 1014.23 1014.32
1004.51 1005.04 1004.49 1004.72 1004.98 1005.64 1005.52 1005.89 1005.52 1007.53 1007.63 1007.00 1007.05 1007.40 1007.78 1007.59 1007.57 1007.85 1008.00 1008.32 1008.72 1009.21 1009.84 1010.01 1010.37 1010.77 1011.11 1011.49 1011.75 1012.09 1012.61 1013.01 1013.33 1013.18 1013.11 1013.42 1013.40 1013.53 1013.52 1013.50 1013.72 1014.01 1014.16
1004.12 1004.47 1005.13 1005.47 1005.24 1005.56 1006.01 1005.86 1006.54 1007.05 1007.03 1006.80 1007.15 1007.10 1006.79 1006.68 1006.74 1007.28 1007.30 1007.83 1008.56 1008.90 1009.20 1009.57 1009.79 1010.15 1010.53 1010.86 1011.07 1011.27 1011.78 1012.02 1012.53 1012.75 1012.64 1012.68 1012.67 1012.81 1012.96 1013.08 1013.31 1013.64 1013.90
1003.98 1004.57 1005.18 1005.53 1005.50 1005.43 1005.47 1006.06 1006.55 1006.82 1006.55 1006.38 1006.41 1007.06 1006.51 1006.24 1006.68 1006.92 1007.45 1007.88 1007.91 1008.42 1008.56 1009.00 1009.31 1009.55 1009.97 1010.28 1010.32 1010.56 1011.10 1011.25 1011.29 1011.73 1011.81 1011.71 1011.80 1011.96 1012.36 1012.69 1012.77 1012.79 1012.81
1004.77 1005.06 1005.39 1005.59 1005.77 1005.90 1005.93 1005.99 1005.73 1005.54 1005.34 1005.78 1005.83 1006.02 1006.12 1005.48 1006.04 1006.64 1006.97 1007.41 1008.01 1008.09 1007.90 1008.33 1008.72 1009.09 1009.33 1009.64 1009.79 1009.94 1010.04 1010.45 1010.81 1010.92 1010.79 1010.73 1010.79 1010.93 1011.43 1011.58 1011.95 1012.31 1012.63
1006.08 1006.06 1005.42 1005.31 1005.07 1005.04 1004.78 1004.62 1004.70 1004.50 1004.66 1005.09 1004.83 1005.18 1005.07 1005.73 1005.63 1006.44 1006.92 1006.94 1006.96 1007.10 1008.11 1008.45 1008.50 1008.97 1008.72 1008.88 1009.23 1009.31 1009.41 1009.34 1009.38 1009.82 1009.81 1009.64 1010.06 1010.36 1010.61 1011.39 1011.70 1012.05 1012.18
1006.04 1006.05 1005.61 1005.13 1004.61 1004.58 1004.50 1004.35 1004.23 1004.29 1004.60 1004.77 1004.86 1004.93 1004.64 1004.91 1005.42 1005.64 1006.04 1006.53 1006.89 1007.57 1008.40 1008.41 1008.38 1008.34 1008.71 1008.82 1008.87 1008.79 1008.79 1008.38 1009.02 1009.36 1009.58 1009.91 1009.98 1010.25 1010.36 1010.47 1010.76 1011.10 1011.51
1005.90 1005.85 1005.39 1005.07 1004.97 1004.76 1004.64 1004.90 1004.85 1004.85 1004.70 1004.87 1004.87 1004.49 1004.47 1004.63 1005.18 1005.83 1005.85 1006.45 1006.85 1007.52 1008.03 1007.82 1008.07 1008.17 1008.24 1008.67 1008.57 1008.39 1007.86 1007.98 1008.37 1008.54 1008.62 1008.92 1009.16 1009.34 1009.64 1009.79 1009.87 1009.84 1010.18
1006.47 1006.25 1005.81 1005.80 1005.67 1005.61 1005.74 1005.55 1005.38 1005.12 1005.21 1005.18 1005.18 1005.45 1005.33 1005.40 1005.67 1005.80 1006.01 1006.42 1006.97 1007.01 1007.52 1007.71 1007.74 1008.04 1008.03 1008.53 1009.00 1008.57 1007.37 1008.18 1008.23 1008.61 1008.40 1008.44 1008.32 1008.20 1008.25 1008.43 1008.86 1008.91 1008.90
1007.34 1007.02 1006.63 1006.46 1006.32 1006.46 1006.39 1006.30 1005.89 1005.94 1006.04 1005.67 1005.79 1005.65 1005.99 1006.18 1006.57 1006.58 1006.74 1006.95 1007.25 1007.59 1007.76 1008.30 1008.30 1008.01 1008.00 1008.15 1007.97 1007.91 1007.83 1008.20 1007.90 1007.94 1007.50 1007.39 1007.32 1007.04 1007.35 1007.74 1007.80 1008.25 1008.73
1007.79 1007.57 1007.10 1007.02 1006.72 1006.64 1006.34 1006.50 1006.29 1006.38 1006.10 1005.79 1006.02 1006.36 1006.78 1007.01 1007.19 1007.78 1007.62 1007.61 1007.43 1007.65 1008.07 1008.20 1008.36 1008.25 1008.04 1008.00 1007.85 1007.31 1007.32 1007.40 1007.51 1007.20 1006.96 1006.58 1006.61 1006.71 1006.64 1006.70 1007.08 1007.36 1008.15
1008.28 1008.12 1007.87 1007.47 1007.08 1006.61 1006.63 1006.66 1006.30 1006.37 1006.33 1006.38 1006.72 1006.75 1007.16 1007.88 1008.50 1008.20 1007.97 1007.98 1008.12 1008.08 1008.01 1008.08 1007.90 1007.77 1007.53 1007.40 1007.35 1006.96 1006.57 1006.59 1006.69 1006.49 1006.44 1006.17 1006.08 1006.06 1006.05 1005.85 1006.04 1006.67 1006.95
1008.69 1008.46 1008.27 1007.94 1007.74 1007.59 1007.10 1006.41 1006.65 1006.63 1006.69 1006.61 1006.61 1006.66 1007.22 1007.49 1008.11 1008.40 1008.44 1008.19 1008.03 1008.01 1008.18 1007.87 1007.60 1007.65 1007.40 1007.13 1006.82 1006.83 1006.59 1006.23 1006.01 1005.88 1005.76 1005.48 1005.35 1005.48 1005.42 1005.19 1005.75 1005.97 1005.97
1008.86 1008.66 1008.25 1007.91 1007.64 1007.53 1007.18 1006.98 1007.01 1006.76 1006.76 1006.98 1007.04 1006.91 1006.98 1007.44 1007.86 1007.92 1008.21 1008.01 1008.13 1007.87 1007.99 1007.73 1007.66 1007.53 1007.01 1006.60 1006.72 1006.64 1006.02 1005.80 1005.58 1005.27 1005.07 1004.80 1004.69 1004.73 1004.69 1004.66 1004.91 1004.96 1005.20
1008.87 1008.64 1008.42 1008.30 1008.15 1007.70 1007.51 1007.11 1006.90 1007.02 1006.97 1006.99 1007.23 1007.33 1007.31 1007.83 1007.74 1008.04 1008.01 1007.69 1007.76 1007.64 1007.59 1007.43 1007.28 1007.05 1006.80 1006.52 1006.51 1006.00 1005.70 1005.24 1004.94 1004.64 1004.47 1004.16 1004.01 1003.89 1003.91 1003.99 1004.06 1004.27 1004.22
1008.78 1008.71 1008.38 1008.16 1007.96 1007.59 1007.23 1007.13 1007.22 1007.25 1007.46 1007.44 1007.42 1007.39 1007.56 1007.91 1007.80 1007.85 1007.83 1007.62 1007.27 1007.19 1007.12 1006.96 1006.83 1006.80 1006.66 1006.46 1006.05 1005.67 1005.34 1004.93 1004.51 1004.05 1003.64 1003.36 1003.19 1003.08 1002.85 1002.90 1002.99 1003.06 1003.30
1009.08 1008.85 1008.49 1007.93 1007.58 1007.45 1007.28 1007.25 1007.63 1007.64 1007.38 1007.07 1006.88 1007.24 1007.39 1007.60 1007.65 1007.57 1007.73 1007.47 1007.17 1007.03 1006.98 1006.94 1006.87 1006.81 1006.60 1006.22 1005.69 1005.28 1004.82 1004.37 1003.79 1003.29 1002.86 1002.55 1002.34 1002.22 1001.94 1001.87 1001.84 1001.87 1001.93
1008.67 1008.52 1008.39 1008.25 1008.16 1008.18 1008.11 1007.85 1007.55 1007.35 1007.06 1006.84 1006.87 1006.89 1006.93 1007.22 1007.24 1007.17 1007.14 1007.00 1006.59 1006.50 1006.44 1006.38 1006.42 1006.37 1006.14 1005.76 1005.40 1005.00 1004.63 1004.19 1003.67 1003.19 1002.58 1001.97 1001.53 1001.11 1000.95 1000.78 1000.82 1000.49 1000.67
1008.35 1008.29 1008.20 1008.18 1007.99 1007.69 1007.48 1007.38 1007.01 1006.59 1006.38 1006.36 1006.56 1006.74 1007.04 1007.00 1006.76 1006.49 1006.17 1005.92 1005.83 1006.01 1006.05 1006.03 1006.08 1006.00 1005.78 1005.44 1005.19 1004.90 1004.60 1004.25 1003.82 1003.27 1002.54 1001.76 1001.16 1000.59 1000.23 999.97 999.85 999.60 999.69
1008.17 1008.20 1008.13 1007.99 1007.80 1007.56 1007.27 1006.95 1006.74 1006.55 1006.26 1005.81 1005.82 1005.91 1006.00 1005.98 1005.76 1005.57 1005.38 1005.16 1005.28 1005.42 1005.55 1005.67 1005.60 1005.55 1005.44 1005.24 1004.87 1004.55 1004.49 1004.35 1004.01 1003.39 1002.67 1001.91 1001.24 1000.63 999.94 999.18 998.83 998.84 998.44
1007.96 1008.07 1008.05 1007.81 1007.57 1007.35 1007.05 1006.62 1006.28 1006.01 1005.64 1005.21 1004.94 1004.82 1004.89 1004.96 1004.99 1004.87 1004.82 1004.73 1004.74 1004.84 1005.09 1005.02 1004.89 1004.90 1004.89 1004.83 1004.60 1004.29 1004.15 1004.29 1004.05 1003.39 1002.70 1002.06 1001.43 1000.90 1000.22 999.63 999.10 998.45 997.73
1007.58 1007.54 1007.48 1007.37 1007.14 1006.94 1006.71 1006.18 1005.74 1005.35 1004.94 1004.60 1004.36 1004.30 1004.22 1004.17 1004.06 1004.04 1004.08 1004.10 1004.25 1004.36 1004.32 1004.28 1004.18 1004.17 1004.16 1004.14 1004.04 1003.85 1003.70 1003.89 1003.72 1003.36 1002.75 1002.17 1001.67 1001.13 1000.56 1000.11 999.60 998.94 998.33
1007.69 1007.60 1007.50 1007.39 1007.18 1006.89 1006.53 1006.18 1005.62 1005.04 1004.67 1004.36 1004.14 1003.81 1003.50 1003.37 1003.28 1003.34 1003.42 1003.49 1003.52 1003.58 1003.58 1003.45 1003.31 1003.32 1003.40 1003.47 1003.41 1003.43 1003.50 1003.39 1003.19 1003.02 1002.58 1002.22 1001.76 1001.17 1000.97 1000.52 1000.12 999.82 999.32
Wind_Speed
7 10 9 9 3 1 4 7 8 9 11 12 13 13 12 11 11 11 10 10 11 10 9 9 9 8 6 5 5 4 5 5 5 2 1 2 3 2 2 3 2 2 2
4 5 8 9 10 6 5 5 5 4 3 7 11 12 12 12 11 13 13 11 11 10 10 9 10 6 7 6 5 7 6 6 4 6 1 2 4 2 1 1 1 1 1
9 7 4 9 11 9 4 7 6 7 7 9 12 11 12 11 11 11 11 10 12 10 10 10 9 9 7 6 7 6 6 5 6 4 3 2 1 1 1 1 1 2 1
11 11 10 8 8 6 7 4 6 5 12 10 8 11 9 9 8 9 11 11 10 10 10 10 8 9 9 9 8 8 6 6 6 5 4 4 3 2 2 2 2 1 3
13 13 12 8 6 3 7 12 9 13 10 6 7 7 6 6 6 8 8 9 9 8 8 8 9 11 12 10 7 8 8 7 5 5 4 3 3 3 4 3 4 3 3
8 6 4 7 7 2 5 7 11 7 7 6 5 8 9 6 7 4 6 5 7 9 8 8 8 11 12 14 14 11 11 9 9 5 5 5 8 6 5 6 4 3 2
5 5 3 7 9 5 3 5 9 9 6 7 6 7 6 7 11 7 10 7 7 9 8 7 7 9 10 9 13 14 12 13 11 8 7 8 5 8 6 6 6 5 5
8 5 2 3 5 6 8 10 8 5 7 7 7 8 7 4 10 9 12 7 6 7 5 8 8 8 9 10 9 10 11 11 12 9 11 9 8 7 10 8 9 8 2
6 4 5 2 2 4 4 3 3 3 3 5 4 6 6 7 15 14 12 6 4 3 2 4 5 9 11 16 10 10 9 11 9 15 14 11 10 11 9 6 5 4 4
6 5 4 5 7 6 3 1 1 1 2 3 5 5 8 6 13 14 8 5 5 3 4 6 11 10 13 13 11 10 9 12 9 8 7 8 9 9 14 11 8 8 6
7 6 8 8 7 7 5 3 3 1 2 2 4 4 6 6 8 10 10 3 3 3 5 3 5 6 9 10 12 9 10 4 7 7 7 7 8 9 9 10 10 10 9
7 7 7 7 6 5 5 4 3 2 2 2 5 5 6 6 9 10 10 7 3 3 3 4 4 10 8 10 9 13 9 5 3 6 6 7 8 9 10 10 11 10 9
6 6 6 6 5 4 4 4 3 4 3 4 4 5 5 5 6 9 10 9 9 2 3 2 6 8 9 7 10 13 6 4 5 6 8 9 9 8 6 6 8 10 10
6 7 6 5 5 4 3 2 2 3 3 4 5 4 4 3 4 2 4 3 7 4 3 3 5 7 9 8 6 6 5 5 7 8 9 8 5 6 7 8 7 7 6
4 4 4 3 4 5 4 2 1 0 1 3 2 4 4 3 2 4 3 3 3 2 2 1 2 2 4 4 5 6 5 5 7 8 8 8 7 6 8 7 7 6 9
3 3 3 2 2 2 2 3 5 3 4 3 4 3 3 8 9 6 4 4 2 2 1 3 4 4 4 5 4 5 6 9 8 7 7 7 8 7 6 5 6 8 9
4 4 3 2 3 3 3 3 2 1 2 3 4 6 6 9 7 6 5 8 5 3 2 2 3 4 5 5 5 6 7 6 8 8 8 9 7 8 7 7 7 8 9
3 5 2 2 2 3 3 3 1 1 3 3 2 1 6 7 7 3 1 4 2 2 0 3 4 4 5 6 6 6 7 7 7 7 7 8 8 8 8 8 9 9 10
3 3 3 2 3 3 3 4 3 2 1 2 2 1 3 3 1 3 4 1 3 2 2 4 6 5 6 6 6 7 8 8 8 8 8 8 8 8 9 10 11 12 12
2 4 3 3 4 4 4 4 3 3 3 2 1 1 2 2 2 2 3 2 3 3 2 4 4 3 5 6 6 6 7 7 7 7 8 8 8 9 9 10 10 11 11
2 3 4 2 2 2 2 3 3 3 2 3 2 2 4 3 3 4 3 4 4 3 3 4 4 4 5 5 5 5 6 6 7 7 8 8 8 8 8 8 9 9 11
2 2 3 3 4 4 5 4 5 5 4 4 3 2 6 3 4 5 5 4 4 4 3 4 4 5 5 5 4 5 6 6 7 7 8 8 9 9 9 9 9 9 9
2 3 4 4 4 6 6 5 5 5 6 6 5 4 4 5 6 6 6 5 4 5 4 5 6 5 5 5 4 3 4 6 7 7 7 7 6 6 8 9 9 9 9
1 3 4 5 5 5 5 7 6 7 7 7 6 5 5 6 7 7 7 6 5 6 6 6 6 8 6 6 4 3 3 3 6 7 8 6 6 8 5 5 5 8 10
3 4 4 5 6 6 7 7 6 7 7 7 7 7 7 7 7 7 6 6 6 7 8 8 5 7 9 9 7 7 6 5 5 8 5 5 6 8 8 6 5 5 7
5 5 5 5 6 6 7 8 9 7 6 6 6 7 7 7 7 7 7 7 8 8 9 7 7 9 8 6 6 5 6 6 6 7 5 4 4 3 3 4 7 5 7
Wind_Direction
205 231 206 197 141 109 172 159 183 208 207 213 206 209 210 208 200 197 203 197 201 205 207 208 215 205 207 201 207 193 196 205 252 277 251 284 279 292 310 332 322 302 276
226 184 163 160 165 156 169 141 136 177 226 223 220 217 205 202 195 196 200 199 201 201 206 204 208 197 211 202 205 209 203 196 212 260 262 269 254 289 283 243 90 66 101
182 182 160 165 168 181 170 115 175 188 216 207 210 211 206 196 189 197 201 195 199 194 196 203 200 193 206 200 213 213 216 201 195 203 237 233 271 269 237 147 136 115 79
190 173 188 223 241 192 169 213 188 214 214 210 204 194 190 205 194 198 195 194 191 194 194 195 195 195 207 204 206 212 214 214 213 198 202 226 233 220 226 192 191 178 223
194 183 186 228 265 312 150 181 189 215 221 191 181 184 192 184 182 187 194 197 197 187 197 196 201 206 210 205 196 204 198 211 224 221 194 189 202 193 217 180 205 187 231
126 164 190 229 256 253 156 175 198 203 184 174 195 215 199 201 185 213 175 185 202 195 195 203 211 208 216 204 202 193 196 198 215 217 218 216 227 224 208 201 189 164 225
132 121 167 209 233 235 209 197 200 192 179 190 170 210 196 179 180 213 227 224 192 207 196 202 215 226 217 219 216 211 214 204 200 205 221 213 216 208 200 205 195 190 200
27 56 151 200 198 199 197 208 207 187 176 197 203 200 205 179 181 222 201 201 208 211 197 206 211 227 211 216 225 216 219 222 226 220 220 234 224 181 195 199 209 221 208
22 15 33 10 211 194 187 200 201 202 203 220 229 230 205 221 188 176 172 180 168 117 201 239 240 253 233 216 219 224 224 228 215 222 228 221 208 183 178 160 181 167 212
6 359 14 19 22 13 343 350 328 293 277 221 216 230 211 213 172 166 171 140 141 125 226 231 228 243 257 232 217 225 224 239 215 222 223 237 222 207 182 197 187 200 216
2 3 22 24 21 13 20 5 313 340 76 59 83 67 63 94 135 155 100 103 118 160 218 222 249 270 258 241 232 222 216 272 244 222 227 228 218 211 202 210 200 200 203
12 20 22 19 21 26 21 10 28 58 85 58 91 63 55 64 54 65 81 97 77 81 37 6 351 344 323 271 250 248 219 244 249 239 235 241 233 220 215 202 206 214 222
15 16 19 13 23 18 33 18 54 54 53 55 72 79 78 64 56 78 80 79 68 84 58 359 304 315 303 283 258 262 281 238 230 231 235 240 229 233 207 203 200 216 225
23 4 359 11 7 19 30 19 51 46 58 65 76 94 87 91 92 49 60 60 60 49 15 310 291 265 237 250 278 238 214 219 240 247 244 245 228 203 206 199 203 187 203
11 0 356 6 8 3 359 319 43 30 64 109 112 120 121 103 75 85 74 64 30 19 330 284 339 343 342 333 304 283 262 233 231 235 246 248 240 226 225 210 205 197 202
8 353 340 349 349 328 340 10 47 122 125 86 134 130 86 102 135 127 105 79 53 345 69 8 354 333 317 306 301 287 285 272 253 245 239 237 237 228 229 210 210 210 214
346 336 345 8 19 2 350 8 347 1 101 80 92 103 76 141 149 142 142 127 135 161 46 6 329 313 317 310 289 277 278 268 273 255 247 242 234 240 224 217 214 211 222
347 338 4 17 6 12 0 355 329 306 325 346 50 256 142 152 152 149 105 139 103 90 300 311 298 289 293 294 284 280 278 275 265 257 253 248 238 234 230 224 220 222 224
355 351 348 347 13 17 16 22 18 6 295 258 264 143 155 169 312 339 4 317 321 339 323 321 320 320 316 302 294 292 280 270 262 263 252 241 235 231 231 229 233 223 227
320 324 356 0 9 17 20 13 354 342 336 334 328 309 139 146 215 212 225 248 276 277 278 288 295 293 303 304 298 298 302 305 295 268 252 246 244 241 237 234 230 230 224
336 340 339 347 353 334 311 297 270 256 275 311 293 233 215 216 234 235 244 263 262 261 266 284 294 292 295 303 312 316 317 307 306 305 296 278 257 245 242 241 238 240 235
310 319 343 349 334 329 318 308 306 290 279 277 276 242 184 228 245 247 245 247 245 234 252 265 278 280 288 301 314 323 326 324 323 317 308 296 287 266 254 247 242 236 243
312 339 340 331 322 311 308 304 296 286 268 263 256 256 220 243 249 250 250 251 246 245 249 252 259 269 279 287 303 321 325 323 316 315 316 316 316 314 298 264 245 241 235
325 295 293 298 304 303 291 292 292 275 267 260 259 250 247 244 251 246 242 244 242 252 255 247 244 254 266 266 275 284 298 307 304 309 325 327 336 330 324 322 318 290 257
265 273 283 293 305 308 305 295 288 292 282 263 262 252 251 241 243 247 243 239 241 247 254 249 236 250 264 267 256 271 273 279 284 304 318 344 342 342 354 343 357 12 26
340 327 321 317 317 321 319 313 306 299 287 279 265 255 249 248 244 237 235 238 242 244 254 252 243 244 255 257 249 277 294 293 300 302 306 318 330 351 343 338 359 11 16